Regional Weather Roundup
Issued by NWS

Home | Current Version | Previous Version | Text Only | Print | Product List | Glossary Off
Versions: 1 2 3 4 5 6 7 8 9 10 11 12 13 14 15 16 17 18 19 20 21 22 23 24 25 26 27 28 29 30 31 32 33 34 35 36 37 38 39 40 41 42 43 44 45 46 47 48 49 50

000
ASUS45 KABQ 231410
RWRNM
WEATHER ROUNDUP FOR NEW MEXICO
NATIONAL WEATHER SERVICE ALBUQUERQUE NM
800 AM MDT WED JUL 23 2014

NOTE: "FAIR" MEANS FEW OR NO CLOUDS BELOW 12,000 FEET AGL WITH NO
       SIGNIFICANT WEATHER OR OBSTRUCTIONS TO VISION.

      THIS PRODUCT IS RELEASED AS TWO VERSIONS.  ONE VERSION NEAR
      THE TOP OF THE HOUR CONTAINING PRELIMINARY DATA FROM ALBUQUERQUE
      AND OTHER STATIONS.  A FINAL VERSION WITH ADDITIONAL DATA IS
      ISSUED ABOUT 10 MINUTES AFTER THE HOUR.

NMZ501-503-504-510>518-231500-
NORTHWEST PLATEAU/NORTHCENTRAL MOUNTAINS

CITY           SKY/WX    TMP DP  RH WIND       PRES   REMARKS
FARMINGTON     SUNNY     72  53  51 E6        30.35S
LOS ALAMOS     SUNNY     65  46  51 CALM      30.53R
SANTA FE       SUNNY     69  51  52 N6        30.46R
TAOS           SUNNY     59  48  67 N5        30.53S
ANGEL FIRE     FAIR      53  49  86 CALM      30.65R

$$
NMZ402-403-502-505>509-231500-
WESTCENTRAL MOUNTAINS/SOUTHWEST MOUNTAINS

CITY           SKY/WX    TMP DP  RH WIND       PRES   REMARKS
GALLUP         SUNNY     70  47  43 E13       30.43S
GRANTS         SUNNY     62  53  72 NW6       30.46S
SILVER CITY    MOSUNNY   72  57  60 CALM      30.35S

$$
NMZ407-409-411-412-231500-
SOUTHERN DESERTS

CITY           SKY/WX    TMP DP  RH WIND       PRES   REMARKS
LORDSBURG      FAIR      72  59  64 S3        30.24S
DEMING         MOSUNNY   73  64  73 E6        30.25S
LAS CRUCES     SUNNY     78  59  51 N7        30.27S
ALAMOGORDO     SUNNY     73  63  68 S5        30.28R
T OR C         SUNNY     75  56  51 NW8       30.31R

$$
NMZ519>523-231500-
CENTRAL VALLEYS/CENTRAL HIGHLANDS

CITY           SKY/WX    TMP DP  RH WIND       PRES   REMARKS
ALBUQUERQUE    MOSUNNY   73  55  53 NW6       30.37R
DOUBLE EAGLE   SUNNY     70  54  56 N7        30.41R
MORIARTY ARPT  FAIR      64  56  77 N3        30.47R
CLINES CORNERS PTSUNNY   66  56  70 SE5       30.50R
BELEN          FAIR      68  55  64 NW3       30.36R
SOCORRO        FAIR      74  53  48 N3        30.34R

$$
NMZ524>526-539-540-231500-
SOUTHCENTRAL MOUNTAINS

CITY           SKY/WX    TMP DP  RH WIND       PRES   REMARKS
RUIDOSO        SUNNY     66  55  68 MISG      30.50R

$$
NMZ527>531-231500-
NORTHEAST HIGHLANDS/NORTHEAST PLAINS

CITY           SKY/WX    TMP DP  RH WIND       PRES   REMARKS
LAS VEGAS      SUNNY     61  53  75 NE3       30.51R
RATON          SUNNY     68  55  63 CALM      30.46R
CLAYTON        SUNNY     77  60  55 SW8       30.37R

$$
NMZ532>537-231500-
EASTCENTRAL PLAINS

CITY           SKY/WX    TMP DP  RH WIND       PRES   REMARKS
TUCUMCARI      MOSUNNY   76  64  66 S3        30.31R
CANNON AFB     NOT AVBL
CLOVIS AIRPORT NOT AVBL

$$
NMZ028-029-538-231500-
SOUTHEAST PLAINS

CITY           SKY/WX    TMP DP  RH WIND       PRES   REMARKS
ROSWELL        SUNNY     78  61  55 CALM      30.27R
ARTESIA        SUNNY     77  59  53 SE3       30.26R
CARLSBAD       SUNNY     82  58  43 N5        30.23R
HOBBS          SUNNY     75  61  60 E7        30.28R


$$



USA.gov is the U.S. government's official web portal to all federal, state and local government web resources and services.